Date String (YYYY-MM-DD hh:mm:ss) UTC,Instrument flags,Ambient pressure (hPa),Sample flow (lpm),Bypass flow (lpm),Sample temperature (°C),Ambient temperature (°C),ASC tube jacket temperature (°C),LED temperature (°C),Box temperature (°C),Sample RH (%),Span deviation,Mass concentration (μg/m³),Mass concentration (μg/m³),Mass concentration (μg/m³)
DateTimeUTC,F1_M11,P_M11,Q1_M11,Q2_M11,T1_M11,T2_M11,T3_M11,T4_M11,T5_M11,U1_M11,ZSPAN_M11,X2_M11,X0_M11,X1_M11
2023-04-22 23:00:00,,0831.7,5.00,0.00,22.1,20.5,00.0,30.6,23.6,16.9,-000.3,0008.88,0011.01,0008.35
2023-04-22 23:01:00,,0831.8,5.00,0.00,22.1,20.5,00.0,30.6,23.6,16.9,-000.4,0008.89,0011.03,0008.36
2023-04-22 23:02:00,,0832.1,5.00,0.00,22.1,20.5,00.0,30.6,23.6,17.0,-000.2,0008.89,0011.07,0008.38
2023-04-22 23:03:00,,0832.3,5.00,0.00,22.1,20.4,00.0,30.6,23.6,16.9,-000.1,0008.92,0011.21,0008.41
2023-04-22 23:04:00,,0832.2,5.00,0.00,22.0,20.3,00.0,30.6,23.5,16.9,0000.1,0008.94,0011.24,0008.44
2023-04-22 23:05:00,,0832.1,5.00,0.00,22.0,20.3,00.0,30.6,23.5,17.2,0000.1,0008.97,0011.29,0008.47
2023-04-22 23:06:00,,0831.9,5.00,0.00,22.0,20.3,00.0,30.6,23.5,16.7,0000.4,0009.04,0011.48,0008.53
2023-04-22 23:07:00,,0832.3,5.01,0.00,22.0,20.3,00.0,30.5,23.5,16.7,0000.5,0009.11,0011.57,0008.59
2023-04-22 23:08:00,,0832.3,5.01,0.00,22.0,20.3,00.0,30.5,23.5,16.8,0000.8,0009.12,0011.57,0008.62
2023-04-22 23:09:00,,0832.0,5.00,0.00,22.0,20.4,00.0,30.5,23.5,16.8,0000.8,0009.11,0011.45,0008.65
2023-04-22 23:10:00,,0831.8,5.00,0.00,22.0,20.4,00.0,30.5,23.5,17.0,0000.9,0009.14,0011.39,0008.70
2023-04-22 23:11:00,,0831.9,4.99,0.00,22.0,20.4,00.0,30.5,23.5,17.1,0001.3,0009.14,0011.43,0008.73
2023-04-22 23:12:00,,0831.9,4.99,0.00,22.0,20.4,00.0,30.5,23.5,17.1,0001.4,0009.18,0011.53,0008.78
2023-04-22 23:13:00,,0831.9,5.01,0.00,22.0,20.8,00.0,30.4,23.7,16.4,0001.1,0009.15,0011.45,0008.76
2023-04-22 23:14:00,,0832.0,5.00,0.00,22.1,21.8,00.0,30.4,24.1,16.6,0001.2,0009.10,0011.27,0008.72
2023-04-22 23:15:00,,0832.0,5.00,0.00,22.3,22.8,00.0,30.4,24.4,16.7,0001.5,0009.14,0011.60,0008.74
2023-04-22 23:16:00,,0832.0,5.00,0.00,22.4,22.7,00.0,30.5,24.3,16.8,0001.6,0009.18,0011.67,0008.77
2023-04-22 23:17:00,,0832.0,4.98,0.00,22.4,22.4,00.0,30.6,24.2,17.0,0001.4,0009.22,0011.91,0008.80
2023-04-22 23:18:00,,0831.9,5.00,0.00,22.4,22.1,00.0,30.6,24.1,17.2,0001.4,0009.29,0012.05,0008.82
2023-04-22 23:19:00,,0831.9,5.00,0.00,22.4,21.9,00.0,30.6,24.0,17.3,0001.2,0009.32,0012.03,0008.85
2023-04-22 23:20:00,,0831.9,5.01,0.00,22.4,21.7,00.0,30.7,24.0,16.9,0001.2,0009.33,0012.09,0008.86
2023-04-22 23:21:00,,0831.9,5.01,0.00,22.3,21.4,00.0,30.7,23.9,16.6,0001.5,0009.36,0012.16,0008.87
2023-04-22 23:22:00,,0831.9,5.00,0.00,22.3,21.2,00.0,30.7,23.9,16.5,0001.6,0009.39,0012.08,0008.89
2023-04-22 23:23:00,,0831.9,5.00,0.00,22.3,21.1,00.0,30.7,23.9,16.6,0001.6,0009.42,0012.23,0008.91
2023-04-22 23:24:00,,0831.9,5.00,0.00,22.3,21.0,00.0,30.7,23.9,16.6,0001.8,0009.49,0012.51,0008.96
2023-04-22 23:25:00,,0831.9,4.99,0.00,22.3,20.9,00.0,30.7,23.9,16.7,0001.9,0009.59,0012.63,0009.05
2023-04-22 23:26:00,,0831.9,4.99,0.00,22.3,20.8,00.0,30.7,23.8,16.6,0002.1,0009.60,0012.32,0009.09
2023-04-22 23:27:00,,0831.8,5.00,0.00,22.2,20.7,00.0,30.7,23.8,16.6,0002.4,0009.61,0012.29,0009.10
2023-04-22 23:28:00,,0831.8,5.02,0.00,22.2,20.6,00.0,30.7,23.8,16.8,0002.8,0009.56,0011.95,0009.09
2023-04-22 23:29:00,,0831.8,5.00,0.00,22.2,20.6,00.0,30.7,23.8,16.7,0002.8,0009.48,0011.72,0009.07
2023-04-22 23:30:00,,0831.8,5.00,0.00,22.2,20.6,00.0,30.7,23.8,16.6,0002.9,0009.49,0011.72,0009.07
2023-04-22 23:31:00,,0831.8,5.00,0.00,22.2,20.6,00.0,30.7,23.8,16.7,0002.7,0009.50,0011.77,0009.07
2023-04-22 23:32:00,,0831.8,4.99,0.00,22.2,20.6,00.0,30.7,23.8,16.7,0002.6,0009.56,0011.98,0009.11
2023-04-22 23:33:00,,0831.8,4.99,0.00,22.2,20.7,00.0,30.7,23.8,16.7,0002.4,0009.60,0012.07,0009.13
2023-04-22 23:34:00,,0831.8,5.00,0.00,22.2,20.7,00.0,30.7,23.8,16.8,0002.3,0009.61,0011.95,0009.14
2023-04-22 23:35:00,,0831.9,5.00,0.00,22.2,20.7,00.0,30.6,23.8,16.9,0002.1,0009.63,0011.78,0009.14
2023-04-22 23:36:00,,0831.9,5.00,0.00,22.2,20.6,00.0,30.6,23.7,16.5,0001.8,0009.61,0011.84,0009.12
2023-04-22 23:37:00,,0831.9,5.00,0.00,22.1,20.6,00.0,30.6,23.7,16.1,0001.4,0009.56,0011.87,0009.05
2023-04-22 23:38:00,,0831.9,5.00,0.00,22.1,20.5,00.0,30.6,23.7,16.0,0000.6,0009.49,0012.01,0008.98
2023-04-22 23:39:00,,0831.9,5.00,0.00,22.1,20.4,00.0,30.6,23.6,16.2,0000.2,0009.45,0012.17,0008.92
2023-04-22 23:40:00,,0831.9,5.00,0.00,22.1,20.4,00.0,30.6,23.6,16.4,0000.1,0009.51,0012.55,0008.95
2023-04-22 23:41:00,,0832.0,5.00,0.00,22.1,20.4,00.0,30.6,23.6,16.5,0000.2,0009.56,0013.23,0009.00
2023-04-22 23:42:00,,0832.0,5.00,0.00,22.0,20.4,00.0,30.6,23.6,16.6,0000.5,0009.61,0013.43,0009.05
2023-04-22 23:43:00,,0832.0,5.00,0.00,22.0,20.4,00.0,30.6,23.6,16.9,0000.9,0009.62,0013.30,0009.08
2023-04-22 23:44:00,,0832.0,5.00,0.00,22.0,20.4,00.0,30.6,23.6,16.8,0001.0,0009.66,0013.28,0009.13
2023-04-22 23:45:00,,0832.0,5.00,0.00,22.0,20.4,00.0,30.5,23.5,17.0,0000.8,0009.70,0013.31,0009.18
2023-04-22 23:46:00,,0832.0,5.00,0.00,22.0,20.4,00.0,30.5,23.5,16.7,0000.8,0009.74,0013.26,0009.24
2023-04-22 23:47:00,,0832.0,5.00,0.00,22.0,20.3,00.0,30.5,23.5,16.8,0001.1,0009.82,0013.22,0009.35
2023-04-22 23:48:00,,0832.0,5.00,0.00,22.0,20.3,00.0,30.5,23.4,16.9,0000.8,0009.95,0013.35,0009.46
2023-04-22 23:49:00,,0831.9,5.00,0.00,21.9,20.3,00.0,30.5,23.4,16.9,0001.0,0010.11,0013.33,0009.61
2023-04-22 23:50:00,,0832.0,4.99,0.00,21.9,20.3,00.0,30.5,23.4,17.0,0001.5,0010.23,0013.30,0009.74
2023-04-22 23:51:00,,0832.0,5.00,0.00,21.9,20.3,00.0,30.5,23.4,16.9,0001.7,0010.26,0013.07,0009.76
2023-04-22 23:52:00,,0832.0,5.00,0.00,21.9,20.3,00.0,30.5,23.4,16.7,0001.7,0010.26,0012.46,0009.75
2023-04-22 23:53:00,,0832.0,5.00,0.00,21.9,20.3,00.0,30.4,23.4,16.7,0001.5,0010.25,0012.44,0009.75
2023-04-22 23:54:00,,0832.0,5.00,0.00,21.9,20.3,00.0,30.4,23.4,16.4,0001.3,0010.21,0012.47,0009.71
2023-04-22 23:55:00,,0832.0,5.00,0.00,21.9,20.4,00.0,30.4,23.4,16.5,0001.1,0010.21,0012.59,0009.69
2023-04-22 23:56:00,,0832.0,5.00,0.00,21.9,20.4,00.0,30.4,23.4,16.5,0001.2,0010.18,0012.65,0009.66
2023-04-22 23:57:00,,0832.0,5.00,0.00,21.9,20.4,00.0,30.4,23.4,16.2,0001.4,0010.14,0012.66,0009.63
2023-04-22 23:58:00,,0832.0,5.01,0.00,21.9,20.4,00.0,30.4,23.4,16.3,0001.5,0010.13,0012.78,0009.59
2023-04-22 23:59:00,,0832.0,5.00,0.00,21.9,20.4,00.0,30.4,23.4,16.5,0001.9,0010.08,0012.70,0009.56
